Regional Weather Roundup
Issued by NWS

Home | Current Version | Previous Version | Graphics & Text | Print | Product List | Glossary On
Versions: 1 2 3 4 5 6 7 8 9 10 11 12 13 14 15 16 17 18 19 20 21 22 23 24 25 26 27 28 29 30 31 32 33 34 35 36 37 38 39 40 41 42 43 44 45 46 47 48 49 50
000
ASUS43 KIND 210809
RWRIN

WEATHER ROUNDUP FOR INDIANA
NATIONAL WEATHER SERVICE INDIANAPOLIS IN
400 AM EDT THU AUG 21 2014

NOTE: "FAIR" INDICATES FEW OR NO CLOUDS BELOW 12,000 FEET WITH NO
SIGNIFICANT WEATHER AND/OR OBSTRUCTIONS TO VISIBILITY.

* - STATION DOES NOT REPORT WEATHER SUCH AS PRECIPITATION OR FOG.

+ - STATION NOT QUALITY CONTROLLED BY THE NATIONAL WEATHER SERVICE.
    USE DATA WITH CAUTION...ESPECIALLY DEWPOINT AND RELATIVE
    HUMIDITY OBSERVATIONS.

INZ001>003-010>013-019-020-210900-
NORTHWEST INDIANA

CITY           SKY/WX    TMP DP  RH WIND       PRES   REMARKS
GARY /AIRPORT/ CLOUDY    71  67  85 SW3       29.96F
KNOX *+        CLOUDY    70  66  89 SW7       29.98S
LA PORTE +     CLOUDY    69  68  94 SW8       29.98F
MICHIGAN CITY+ CLOUDY    70  68  94 SW3       29.97F
MONTICELLO +   CLOUDY    69  69  98 E3        29.98F
RENSSELAER +   HVY RAIN  70  70 100 CALM      29.99S
VALPARAISO     LGT RAIN  69  67  93 S5        29.98F

$$

LMZ046-743>745-210900-
SOUTHERN LAKE MICHIGAN

STATION/POSITION TIME  TEMP WIND        PRES
                       AIR  DIR/SP/G
                 (UTC) (F)  (DEG/KT/KT) (MB)
MICHIGAN CITY    0800   73  180/ 11/ 15   N/A

$$

INZ004-005-014>016-021>024-210900-
NORTH CENTRAL INDIANA

CITY           SKY/WX    TMP DP  RH WIND       PRES   REMARKS
GOSHEN         CLOUDY    72  67  84 SW8       29.98F
LOGANSPORT +   CLOUDY    68  66  94 CALM      30.01F
PERU/GRISSOM   CLOUDY    70  70 100 S5        30.00F
ROCHESTER +    LGT RAIN  72  70  94 SW6       30.00F
SOUTH BEND     CLOUDY    71  66  84 SW7       29.98S
WARSAW +       CLOUDY    70  68  94 W3        29.99S

$$

INZ006>009-017-018-025>027-210900-
NORTHEAST INDIANA

CITY           SKY/WX    TMP DP  RH WIND       PRES   REMARKS
ANGOLA *+      CLEAR     72  63  73 CALM      29.98S
AUBURN +       CLOUDY    70  64  83 SW5       29.99F
FORT WAYNE     CLOUDY    70  67  90 SW9       30.00S
HUNTINGTON +   CLOUDY    69  67  93 W6        30.00S

$$

INZ028-029-035-036-043>045-051>053-210900-
WEST CENTRAL INDIANA

CITY           SKY/WX    TMP DP  RH WIND       PRES   REMARKS
GREENCASTLE +  CLOUDY    70  68  94 S3        30.00F
LAFAYETTE      CLOUDY    69  68  96 E5        29.97F
TERRE HAUTE    CLOUDY    72  68  87 S6        29.98F

$$

INZ030>032-037>040-046>048-054>057-064-065-210900-
CENTRAL INDIANA

CITY           SKY/WX    TMP DP  RH WIND       PRES   REMARKS
CP ATTERBURY + PTCLDY    68  66  94 CALM      30.02R
FRANKFORT +    CLOUDY   N/A N/A N/A E3        30.01F
INDIANAPOLIS   CLOUDY    72  68  87 SE3       29.99F
-EAGLE CREEK   CLOUDY    72  67  84 CALM      30.00S
KOKOMO *+      CLOUDY    70  66  88 CALM      30.01F
MARION +       CLOUDY    68  67  94 CALM      30.02R
MT COMFORT *+  CLOUDY    70 N/A N/A CALM      30.02S
SHELBYVILLE    MOCLDY    72  32  23 SE6       30.00F
ZIONSVILLE +   CLOUDY    70  67  89 CALM      30.02R

$$

INZ033-034-041-042-049-050-058-059-210900-
EAST CENTRAL INDIANA

CITY           SKY/WX    TMP DP  RH WIND       PRES   REMARKS
MUNCIE         CLOUDY    72  67  84 SW6       30.02S

$$

INZ060-061-067>069-081>083-085>088-210900-
SOUTHWEST INDIANA

CITY           SKY/WX    TMP DP  RH WIND       PRES   REMARKS
EVANSVILLE     LGT RAIN  75  67  76 NW8       30.06R
WASHINGTON +   CLOUDY    73  70  91 SW13      30.00F

$$

INZ062-063-066-070>080-084-089>092-210900-
SOUTH CENTRAL AND SOUTHEAST INDIANA

CITY           SKY/WX    TMP DP  RH WIND       PRES   REMARKS
BEDFORD +      MOCLDY    73  66  78 S6        30.02
BLOOMINGTON    CLOUDY    73  69  87 SW3       30.01F

$$



USA.gov is the U.S. government's official web portal to all federal, state and local government web resources and services.